Regional Weather Roundup
Issued by NWS State College, PA

Home | Current Version | Previous Version | Text Only | Print | Product List | Glossary Off
Versions: 1 2 3 4 5 6 7 8 9 10 11 12 13 14 15 16 17 18 19 20 21 22 23 24 25 26 27 28 29 30 31 32 33 34 35 36 37 38 39 40 41 42 43 44 45 46 47 48 49 50

000
ASUS41 KCTP 212310
RWRCTP

REGIONAL WEATHER ROUNDUP
NATIONAL WEATHER SERVICE STATE COLLEGE PA
700 PM EDT TUE OCT 21 2014

Note: "fair" indicates few or no clouds below 12,000 feet with no
significant weather and/or obstructions to visibility.

* = STATION THAT DOES NOT REPORT PRECIPITATION /E.G. RAIN...SNOW...ETC/
    THUNDER OR FOG.

PAZ002>004-007>009-013>016-020>023-029>032-220000-
WESTERN PENNSYLVANIA

CITY           SKY/WX    TMP DP  RH WIND       PRES   REMARKS
ERIE           LGT RAIN  49  45  86 NE12      29.99R FOG
MEADVILLE      CLOUDY    47  44  90 CALM      29.96R FOG
FRANKLIN*      CLOUDY    46  43  87 N5        29.97R
NEW CASTLE       N/A     47  46  96 NW5       30.00R
BEAVER COUNTY  CLOUDY    46  45  93 NW6       29.98R
BUTLER*        CLOUDY    46  43  87 W5        29.99R
PITTSBURGH INT DRIZZLE   48  45  89 NW13      29.97R
PITTSBURGH     CLOUDY    48  42  80 NW10G18   29.95R
INDIANA*       CLOUDY    48  46  93 N5        29.97R
LATROBE        LGT RAIN  48  48 100 NW6       29.96R
WASHINGTON CO* CLOUDY    46  43  87 NW5       29.99R
$$

PAZ004>006-010>012-017>019-024>028-033>037-041-042-045-046-049>053-220000-
CENTRAL PENNSYLVANIA

CITY           SKY/WX    TMP DP  RH WIND       PRES   REMARKS
BRADFORD       LGT RAIN  47  44  90 N6        29.93R
DUBOIS         LGT RAIN  47  46  97 NW5       29.92R FOG
CLEARFIELD     LGT RAIN  49  46  90 N5        29.91R
JOHNSTOWN      CLOUDY    47  40  76 NW9       29.91R
ALTOONA        CLOUDY    51  44  77 NW6       29.90R
STATE COLLEGE  CLOUDY    50  48  93 CALM      29.90R
WILLIAMSPORT   CLOUDY    55  48  77 CALM      29.88R
SELINSGROVE    CLOUDY    55  48  77 CALM      29.88R
FT INDIANTOWN  MOCLDY    56  52  86 CALM      29.87R
CAPITAL CITY   CLOUDY    58  50  75 SW7       29.87R
HARRISBURG     CLOUDY    56  52  86 CALM      29.86R
YORK           CLOUDY    54  50  86 W5        29.87R
$$

PAZ038>040-043-044-047-048-054-055-060>062-067>071-220000-
EASTERN PENNSYLVANIA

CITY           SKY/WX    TMP DP  RH WIND       PRES   REMARKS
SCRANTON       LGT RAIN  54  49  83 NE7       29.88R
MOUNT POCONO   CLOUDY    51  48  89 N5        29.88R
ALLENTOWN      CLOUDY    60  49  66 N6        29.86R
QUAKERTOWN*    MOCLDY    59  48  67 N3        29.86R
READING        PTCLDY    59  48  67 N3        29.84R
LANCASTER      MOCLDY    56  49  77 N5        29.85R
COATESVILLE    PTCLDY    55  50  82 NW6       29.86R
POTTSTOWN      CLOUDY    60  48  64 N5        29.86R
BLUE BELL      PTCLDY    57  52  82 CALM      29.83R
DOYLESTOWN     MOCLDY    58  49  72 NE3       29.84R
WILLOW GROVE   NOT AVBL
NORTH PHILA    PTCLDY    64  46  52 N5        29.85R
PHILADELPHIA   MOCLDY    67  47  48 NW6       29.83R
$$



USA.gov is the U.S. government's official web portal to all federal, state and local government web resources and services.